Location: Saint-Palais-sur-Mer
(45.6429°N, 1.0859°W)
Time: 00:28:26
(UTC+01:00)

Vanguard 1 - Pass Details

Date: 12 February 2026
Orbit: 653 x 3818 km, 34.2° (Epoch: 12 March)

Event Time Altitude Azimuth Distance (km) Brightness Sun altitude
Rises 21:21:39 0° 269° (W) 6,627 15.4 -31.0°
Reaches altitude 10° 21:25:37 10° 265° (W) 5,938 14.8 -31.6°
Maximum altitude 21:45:08 56° 195° (SSW) 4,227 13.0 -34.9°
Enters shadow 21:53:53 42° 147° (SSE) 4,752 13.0 -36.4°
